This is the latest recevied weather packets stored in our database for station/object OE6PLD-13. If no packets are shown the sender has not sent any weather packets the latest 10 day(s).
| Time | Temp. | Humidity | Pressure | Rain* | Wind** | Luminosity | Snow |
|---|---|---|---|---|---|---|---|
| 1777562152 | 15° C | 27% | 1011.9 hPa | 0.76 mm | - | 211 W/m² | - |
| 1777561969 | 15° C | 27% | 1012.1 hPa | 0.76 mm | - | 224 W/m² | - |
| 1777561786 | 15° C | 26% | 1012 hPa | 0.76 mm | - | 243 W/m² | - |
| 1777561602 | 15.56° C | 28% | 1011.8 hPa | 0.76 mm | - | 248 W/m² | - |
| 1777561419 | 15° C | 27% | 1011.8 hPa | 0.76 mm | - | 262 W/m² | - |
| 1777561236 | 15.56° C | 24% | 1011.9 hPa | 0.76 mm | - | 263 W/m² | - |
| 1777561052 | 15.56° C | 27% | 1012 hPa | 0.76 mm | - | 265 W/m² | - |
| 1777560868 | 15° C | 29% | 1011.9 hPa | 0.76 mm | - | 278 W/m² | - |
| 1777560685 | 15° C | 28% | 1012 hPa | 0.76 mm | - | 287 W/m² | - |
| 1777560502 | 15° C | 27% | 1012 hPa | 0.76 mm | - | 289 W/m² | - |
| 1777560318 | 15° C | 26% | 1012.1 hPa | 0.76 mm | - | 306 W/m² | - |
| 1777560135 | 15.56° C | 27% | 1012.1 hPa | 0.76 mm | - | 331 W/m² | - |
| 1777559952 | 15.56° C | 27% | 1012 hPa | 0.76 mm | - | 344 W/m² | - |
| 1777559768 | 15.56° C | 28% | 1012.2 hPa | 0.76 mm | - | 340 W/m² | - |
| 1777559585 | 15.56° C | 27% | 1012.1 hPa | 0.76 mm | - | 327 W/m² | - |
| 1777559401 | 15.56° C | 26% | 1012.2 hPa | 0.76 mm | - | 336 W/m² | - |
| 1777559218 | 15.56° C | 28% | 1012.3 hPa | 0.76 mm | - | 337 W/m² | - |
| 1777559035 | 15° C | 28% | 1012.4 hPa | 0.76 mm | - | 328 W/m² | - |
| 1777558851 | 15° C | 27% | 1012.4 hPa | 0.76 mm | - | 337 W/m² | - |
| 1777558668 | 15.56° C | 27% | 1012.3 hPa | 0.76 mm | - | 360 W/m² | - |
| 1777558485 | 16.11° C | 25% | 1012.1 hPa | 0.76 mm | - | 370 W/m² | - |
| 1777558301 | 15.56° C | 28% | 1012.1 hPa | 0.76 mm | - | 364 W/m² | - |
| 1777558118 | 15° C | 27% | 1012.4 hPa | 0.76 mm | - | 367 W/m² | - |
| 1777557935 | 15.56° C | 26% | 1012.4 hPa | 0.76 mm | - | 388 W/m² | - |
| 1777557751 | 16.11° C | 27% | 1012.5 hPa | 0.76 mm | - | 386 W/m² | - |
* Rain latest hour (hover to see other rain measurements)
** Current wind speed in m/s (hover to see current wind gust speed)